Lexington Weather

Lexington, Massachusetts, USA

68°F
9/23/2021 5:17am 
  • Lexington Conditions: Mostly cloudy
  • Temperature: 67.6°F / 19.8°CWarmer 0.9°F than last hour.
  • Dew Point: 66.4°FIncreased 0.9°Fsince last hour.
  • Relative Humidity: 96
  • Wind: Wind from S S 1 mph, 10-min avg: Calm, gust: 3 mph
  • Barometer: 30.03 in Steady
  • Visibility: 10 miles
  • Rain Today: 0.00 in
  •   

Regional Weather Roundup
for Boston / Norton, MA

        
000
ASUS41 KBOX 161604
RWRBOX

REGIONAL WEATHER ROUNDUP
NATIONAL WEATHER SERVICE BOSTON/NORTON MA
1200 PM EDT THU SEP 16 2021

NOTE:  "FAIR" INDICATES FEW OR NO CLOUDS BELOW 12,000 FEET WITH NO 
SIGNIFICANT WEATHER AND/OR OBSTRUCTIONS TO VISIBILITY.

MAZALL-161700-
EASTERN MASSACHUSETTS
  
CITY           SKY/WX    TMP DP  RH WIND       PRES   REMARKS
BOSTON         CLOUDY    70  65  84 E8        30.27R                  
BEVERLY        CLOUDY    70  63  78 NE10      30.27R                  
LAWRENCE       CLOUDY    67  62  84 NE16G22   30.30R                  
BEDFORD        CLOUDY    69  65  86 NE9       30.25S                  
BLUE HILL      NOT AVBL                                               
NORWOOD        CLOUDY    70  64  81 E8        30.26R                  
MARSHFIELD     CLOUDY    70  66  88 CALM      30.26R                  
PLYMOUTH       CLOUDY    68  65  90 E8        30.26R                  
TAUNTON        CLOUDY    69  66  90 E3        30.25R                  
NEW BEDFORD    CLOUDY    70  66  87 NE7       30.24R                  
$$

MAZALL-161700-
CAPE COD AND THE ISLANDS
  
CITY           SKY/WX    TMP DP  RH WIND       PRES   REMARKS
FALMOUTH       PTSUNNY   70  66  88 NE12      30.24F                  
HYANNIS        CLOUDY    72  68  87 NE8       30.22F                  
CHATHAM        CLOUDY    68  66  93 E12       30.24F                  
PROVINCETOWN   CLOUDY    67  66  97 E7        30.25S                  
NANTUCKET      CLOUDY    71  67  87 E12       30.23R                  
MARTHAS VNYRD  CLOUDY    70  67  90 NE16G23   30.22F                  
$$
 
MAZALL-161700-
CENTRAL AND WESTERN MASSACHUSETTS
  
CITY           SKY/WX    TMP DP  RH WIND       PRES   REMARKS
WORCESTER      PTSUNNY   70  62  76 E8        30.28R                  
FITCHBURG      PTSUNNY   70  60  70 NE7       30.28R                  
ORANGE         MOSUNNY   73  59  61 VRB6      30.27S                  
SPRINGFIELD    PTSUNNY   72  63  72 NE7       30.24S                  
WESTFIELD      MOSUNNY   74  64  71 NE8       30.24F                  
NORTH ADAMS    PTSUNNY   71  60  68 VRB3      30.27R                  
PITTSFIELD     CLOUDY    68  59  73 NE5       30.27R                  
$$
 
RIZALL-161700-
RHODE ISLAND
  
CITY           SKY/WX    TMP DP  RH WIND       PRES   REMARKS
PROVIDENCE     LGT RAIN  70  66  87 NE6       30.26R                  
NEWPORT        PTSUNNY   70  65  84 E9G18     30.24R                  
BLOCK ISLAND   CLOUDY    68  64  87 NE14      30.25R                  
SMITHFIELD     CLOUDY    67  66  97 VRB5      30.27R                  
WESTERLY       CLOUDY    70  65  84 E12       30.24R                  
$$
 
CTZALL-161700-
CONNECTICUT
  
CITY           SKY/WX    TMP DP  RH WIND       PRES   REMARKS
BRADLEY INTL   PTSUNNY   72  64  76 N9        30.24R                  
HARTFORD       CLOUDY    72  64  76 N8        30.24R                  
BRIDGEPORT     CLOUDY    73  64  73 NE10      30.23R                  
DANBURY        CLOUDY    73  64  73 E7        30.25R                  
GROTON         PTSUNNY   73  66  78 E10       30.24R                  
NEW HAVEN      CLOUDY    73  67  81 NE7       30.24R                  
CHESTER        PTSUNNY   70  68  94 E6        30.25R                  
MERIDEN        CLOUDY    71  63  75 NE5       30.24R                  
WILLIMANTIC    CLOUDY    70  64  81 NE8       30.25R                  
OXFORD         CLOUDY    69  64  84 E5        30.26R                  
$$

MEZ002-015-021-024-NHZ003-005-008-011-012-014-VTZ005-008-161700-
NORTHERN NEW ENGLAND
  
CITY           SKY/WX    TMP DP  RH WIND       PRES   REMARKS
PORTLAND ME    CLOUDY    67  55  65 NE12      30.31R                  
BANGOR ME      PTSUNNY   67  55  65 N8        30.31R                  
CONCORD NH     NOT AVBL                                               
MANCHESTER NH  PTSUNNY   68  61  78 NE8       30.27R                  
NASHUA NH      CLOUDY    69  66  90 E9        30.28R                  
PORTSMOUTH NH  CLOUDY    66  54  65 NE10      30.30R                  
JAFFREY NH     PTSUNNY   69  62  78 N5        30.29R                  
KEENE NH       SUNNY     70  60  70 NW3       30.27S                  
BURLINGTON VT  MOSUNNY   69  52  54 CALM      30.29S                  
MT. WASHINGTON PTSUNNY   50  39  66 SE3         N/A                   
$$

NYZ052-076-161700-
EASTERN NEW YORK
  
CITY           SKY/WX    TMP DP  RH WIND       PRES   REMARKS
ALBANY         MOSUNNY   66  57  72 NW6       30.28S                  
NEW YORK CITY  PTSUNNY   75  62  64 NE13      30.22R                  
$$
 
ANZALL-161700-
MARINE OBSERVATIONS
  
STATION/POSITION TIME  TEMP    WIND        PRES    VSBY  WAVE
                       AIR SEA DIR/SP/G                  HT/PER
                 (UTC) (F)     (DEG/KT/KT) (MB)    (MI)  (FT/S)
BOSTON BUOY      1540      67   50/  6/  8 1025.1R
BUZZARDS BAY     1500           60/ 19/ 21 1024.3F
NANTUCKET SOUND  1540   69 72   70/ 17/ 21 1023.1F
MASS BAY-STELLWA 1504   66      80/  4/  6 1024.3R  1 7/8  1/ 5
ISLE OF SHOALS   1500   64      40/ 20/ 23 1024.3R
S OF BLOCK IS    1526      69                N/A           4/ 4
$$

......................KEY.........................
  SKY/WX - SKY CONDITION/PRESENT WEATHER
  TMP    - TEMPERATURE IN FAHRENHEIT
  DWPT   - DEWPOINT IN FAHRENHEIT
  RH     - RELATIVE HUMIDITY IN PERCENT
  WIND   - DIRECTION AND SPEED IN MPH
  PRES   - MEAN SEA LEVEL PRESSURE IN INCHES OF HG
  WCI    - WIND CHILL INDEX
  VSB    - VISIBILITY IN MILES
  HX     - HEAT INDEX
  TC     - TEMPERATURE IN CELSIUS
  VRB    - VARIABLE WIND DIRECTION
  N/A    - NOT AVAILABLE
  
      

Other recent Regional Weather Roundups

Thu Sep 23, 5:04am

Thu Sep 23, 4:04am

Thu Sep 23, 3:04am

Thu Sep 23, 2:04am

Thu Sep 23, 1:04am

Thu Sep 23, 12:04am

Wed Sep 22, 11:04pm

Wed Sep 22, 10:04pm

Wed Sep 22, 9:04pm

Wed Sep 22, 8:04pm

Wed Sep 22, 7:04pm

Wed Sep 22, 6:04pm

Wed Sep 22, 5:04pm

Wed Sep 22, 4:04pm

Wed Sep 22, 3:04pm

Wed Sep 22, 2:04pm

Wed Sep 22, 1:04pm

Wed Sep 22, 12:05pm

Wed Sep 22, 11:04am

Wed Sep 22, 10:04am

Wed Sep 22, 9:04am

Wed Sep 22, 8:04am

Wed Sep 22, 7:04am

Wed Sep 22, 6:04am

Wed Sep 22, 5:04am

Wed Sep 22, 4:04am

Wed Sep 22, 3:04am

Wed Sep 22, 2:04am

Wed Sep 22, 1:04am

Wed Sep 22, 12:04am

Tue Sep 21, 11:04pm

Tue Sep 21, 10:04pm

Tue Sep 21, 9:04pm

Tue Sep 21, 8:04pm

Tue Sep 21, 7:04pm

Tue Sep 21, 6:04pm

Tue Sep 21, 5:04pm

Tue Sep 21, 4:04pm

Tue Sep 21, 3:04pm

Tue Sep 21, 2:04pm

Tue Sep 21, 1:04pm

Tue Sep 21, 12:04pm

Tue Sep 21, 11:04am

Tue Sep 21, 10:04am

Tue Sep 21, 9:04am

Tue Sep 21, 8:04am

Tue Sep 21, 7:04am

Tue Sep 21, 6:04am

Tue Sep 21, 5:04am

Tue Sep 21, 4:04am

Tue Sep 21, 3:04am

Tue Sep 21, 2:04am

Tue Sep 21, 1:04am

Tue Sep 21, 12:04am

Mon Sep 20, 11:04pm

Mon Sep 20, 10:04pm

Mon Sep 20, 9:04pm

Mon Sep 20, 8:04pm

Mon Sep 20, 7:04pm

Mon Sep 20, 6:04pm

Mon Sep 20, 5:04pm

Mon Sep 20, 4:04pm

Mon Sep 20, 3:04pm

Mon Sep 20, 2:04pm

Mon Sep 20, 1:04pm

Mon Sep 20, 12:04pm

Mon Sep 20, 11:04am

Mon Sep 20, 10:04am

Mon Sep 20, 9:04am

Mon Sep 20, 7:04am

Mon Sep 20, 6:04am

Mon Sep 20, 5:04am

Mon Sep 20, 4:04am

Mon Sep 20, 3:04am

Mon Sep 20, 2:04am

Mon Sep 20, 1:04am

Mon Sep 20, 12:04am

Sun Sep 19, 11:04pm

Sun Sep 19, 10:04pm

Sun Sep 19, 9:04pm

Sun Sep 19, 8:04pm

Sun Sep 19, 7:04pm

Sun Sep 19, 6:04pm

Sun Sep 19, 5:04pm

Sun Sep 19, 4:04pm

Sun Sep 19, 3:04pm

Sun Sep 19, 2:05pm

Sun Sep 19, 1:04pm

Sun Sep 19, 12:04pm

Sun Sep 19, 11:04am

Sun Sep 19, 10:05am

Sun Sep 19, 9:04am

Sun Sep 19, 8:04am

Sun Sep 19, 7:04am

Sun Sep 19, 6:04am

Sun Sep 19, 5:04am

Sun Sep 19, 4:04am

Sun Sep 19, 3:04am

Sun Sep 19, 2:04am

Sun Sep 19, 1:04am

Sun Sep 19, 12:04am

Sat Sep 18, 11:05pm

Sat Sep 18, 10:04pm

Sat Sep 18, 9:04pm

Sat Sep 18, 8:04pm

Sat Sep 18, 7:04pm

Sat Sep 18, 6:04pm

Sat Sep 18, 5:04pm

Sat Sep 18, 4:04pm

Sat Sep 18, 3:04pm

Sat Sep 18, 2:04pm

Sat Sep 18, 1:04pm

Sat Sep 18, 12:04pm

Sat Sep 18, 11:04am

Sat Sep 18, 10:04am

Sat Sep 18, 9:04am

Sat Sep 18, 8:04am

Sat Sep 18, 7:04am

Sat Sep 18, 6:04am

Sat Sep 18, 5:04am

Sat Sep 18, 4:04am

Sat Sep 18, 3:04am

Sat Sep 18, 2:04am

Sat Sep 18, 1:04am

Sat Sep 18, 12:04am

Fri Sep 17, 11:04pm

Fri Sep 17, 10:04pm

Fri Sep 17, 9:04pm

Fri Sep 17, 8:04pm

Fri Sep 17, 7:04pm

Fri Sep 17, 6:04pm

Fri Sep 17, 5:04pm

Fri Sep 17, 4:04pm

Fri Sep 17, 3:04pm

Fri Sep 17, 2:04pm

Fri Sep 17, 1:04pm

Fri Sep 17, 12:05pm

Fri Sep 17, 11:04am

Fri Sep 17, 10:04am

Fri Sep 17, 9:04am

Fri Sep 17, 8:04am

Fri Sep 17, 7:04am

Fri Sep 17, 6:04am

Fri Sep 17, 5:04am

Fri Sep 17, 4:04am

Fri Sep 17, 3:04am

Fri Sep 17, 2:04am

Fri Sep 17, 1:04am

Fri Sep 17, 12:04am

Thu Sep 16, 11:04pm

Thu Sep 16, 10:04pm

Thu Sep 16, 9:04pm

Thu Sep 16, 8:04pm

Thu Sep 16, 7:04pm

Thu Sep 16, 6:04pm

Thu Sep 16, 5:04pm

Thu Sep 16, 4:04pm

Thu Sep 16, 3:04pm

Thu Sep 16, 2:04pm

Thu Sep 16, 1:05pm

Thu Sep 16, 11:05am

Thu Sep 16, 10:05am

Thu Sep 16, 9:04am

Thu Sep 16, 8:04am

Thu Sep 16, 7:04am

Thu Sep 16, 6:04am

Meta data:

ID: 45428ded-741b-492c-86bc-77bc82528f3c
Link: https://api.weather.gov/products/45428ded-741b-492c-86bc-77bc82528f3c